Tracking 29892 objects as of 21-Nov-2024
HD Live streaming from Space Station
objects crossing your sky now

CZ-6A DEB

Track CZ-6A DEB now!
10-day predictions


NORAD ID: 54449
Int'l Code: 2022-151FZ
Perigee: 831.5 km
Apogee: 1,026.8 km
Inclination: 98.9 °
Period: 103.5 minutes
Semi major axis: 7300 km
RCS: Unknown
Launch date: November 11, 2022
Source: People's Republic of China (PRC)
Launch site: Taiyaun Space Center, China (TSC)

Note: This is SATELLITE DEBRIS
Your satellite tracking list
Your tracking list is empty




NASA's NSSDC Master Catalog

Two Line Element Set (TLE):
1 54449U 22151FZ  24325.36675367  .00000928  00000-0  70747-3 0  9993
2 54449  98.9165 309.1323 0133769 203.6510 155.8464 13.91901263102565
Source of the keplerian elements: AFSPC